Time,TemperatureF,DewpointF,PressureIn,WindDirection,WindDirectionDegrees,WindSpeedMPH,WindSpeedGustMPH,Humidity,HourlyPrecipIn,Conditions,Clouds,dailyrainin,SoftwareType,DateUTC
2013-05-26 00:04:00,68.0,57.8,29.29,SSW,194,0.0,0.0,70,0.00,,---,0.00,VWS V14.00,2013-05-26 05:04:00,
2013-05-26 00:06:00,68.0,57.8,29.29,SSW,194,0.0,0.0,70,0.00,,---,0.00,VWS V14.00,2013-05-26 05:06:00,
2013-05-26 00:07:00,68.0,57.8,29.29,SSW,194,0.0,0.0,70,0.00,,---,0.00,VWS V14.00,2013-05-26 05:07:00,
2013-05-26 00:10:00,67.8,57.7,29.29,SSW,194,0.0,0.0,70,0.00,,---,0.00,VWS V14.00,2013-05-26 05:10:00,
2013-05-26 00:13:00,67.8,57.7,29.29,SSW,194,0.0,0.0,70,0.00,,---,0.00,VWS V14.00,2013-05-26 05:13:00,
2013-05-26 00:16:00,67.8,57.7,29.29,SSW,194,0.0,0.0,70,0.00,,---,0.00,VWS V14.00,2013-05-26 05:16:00,
2013-05-26 00:19:00,67.6,57.5,29.29,ENE,63,0.0,0.0,70,0.00,,---,0.00,VWS V14.00,2013-05-26 05:19:00,
2013-05-26 00:21:00,67.6,57.5,29.29,ENE,63,0.0,0.0,70,0.00,,---,0.00,VWS V14.00,2013-05-26 05:21:00,
2013-05-26 00:22:00,67.6,57.5,29.29,ENE,63,0.0,0.0,70,0.00,,---,0.00,VWS V14.00,2013-05-26 05:22:00,
2013-05-26 00:25:00,67.6,57.5,29.29,ENE,63,0.0,0.0,70,0.00,,---,0.00,VWS V14.00,2013-05-26 05:25:00,
2013-05-26 00:28:00,67.4,57.3,29.29,ENE,63,0.0,0.0,70,0.00,,---,0.00,VWS V14.00,2013-05-26 05:28:00,
2013-05-26 00:31:00,67.4,57.3,29.29,SSW,193,0.0,0.0,70,0.00,,---,0.00,VWS V14.00,2013-05-26 05:31:00,
2013-05-26 00:36:00,67.4,57.3,29.29,SSE,149,3.1,3.1,70,0.00,,---,0.00,VWS V14.00,2013-05-26 05:36:00,
2013-05-26 00:43:00,67.3,57.2,29.29,SSE,160,0.0,3.1,70,0.00,,---,0.00,VWS V14.00,2013-05-26 05:43:00,
2013-05-26 00:46:00,67.3,57.2,29.29,SSE,160,0.0,3.1,70,0.00,,---,0.00,VWS V14.00,2013-05-26 05:46:00,
2013-05-26 00:49:00,67.3,57.2,29.29,SSE,160,0.0,3.1,70,0.00,,---,0.00,VWS V14.00,2013-05-26 05:49:00,
2013-05-26 00:55:00,67.1,57.4,29.29,SSE,160,0.0,0.0,71,0.00,,---,0.00,VWS V14.00,2013-05-26 05:55:00,
2013-05-26 01:01:00,66.9,57.2,29.29,SSE,160,0.0,0.0,71,0.00,,---,0.00,VWS V14.00,2013-05-26 06:01:00,
2013-05-26 01:04:00,66.9,57.2,29.29,SSE,160,0.0,0.0,71,0.00,,---,0.00,VWS V14.00,2013-05-26 06:04:00,
2013-05-26 01:07:00,66.9,57.2,29.29,South,182,2.7,2.7,71,0.00,,---,0.00,VWS V14.00,2013-05-26 06:07:00,
2013-05-26 01:13:00,66.7,57.0,29.29,South,182,2.7,2.7,71,0.00,,---,0.00,VWS V14.00,2013-05-26 06:13:00,
2013-05-26 01:16:00,66.7,57.0,29.29,South,182,2.7,2.7,71,0.00,,---,0.00,VWS V14.00,2013-05-26 06:16:00,
2013-05-26 01:19:00,66.5,57.2,29.29,South,182,2.2,2.7,72,0.00,,---,0.00,VWS V14.00,2013-05-26 06:19:00,
2013-05-26 01:22:00,66.5,57.2,29.29,South,182,2.2,3.1,72,0.00,,---,0.00,VWS V14.00,2013-05-26 06:22:00,
2013-05-26 01:25:00,66.5,57.2,29.29,South,182,2.2,3.1,72,0.00,,---,0.00,VWS V14.00,2013-05-26 06:25:00,
2013-05-26 01:31:00,66.5,57.2,29.29,South,182,0.0,3.1,72,0.00,,---,0.00,VWS V14.00,2013-05-26 06:31:00,
2013-05-26 01:34:00,66.4,57.8,29.29,South,182,0.0,3.1,74,0.00,,---,0.00,VWS V14.00,2013-05-26 06:34:00,
2013-05-26 01:36:00,66.4,57.8,29.29,South,182,0.0,3.1,74,0.00,,---,0.00,VWS V14.00,2013-05-26 06:36:00,
2013-05-26 01:37:00,66.4,57.8,29.29,South,182,0.0,0.0,74,0.00,,---,0.00,VWS V14.00,2013-05-26 06:37:00,
2013-05-26 01:43:00,66.2,58.0,29.29,South,182,2.7,2.7,75,0.00,,---,0.00,VWS V14.00,2013-05-26 06:43:00,
2013-05-26 01:46:00,66.2,58.0,29.29,South,182,3.1,3.1,75,0.00,,---,0.00,VWS V14.00,2013-05-26 06:46:00,
2013-05-26 01:49:00,66.2,58.0,29.29,South,182,2.7,3.1,75,0.00,,---,0.00,VWS V14.00,2013-05-26 06:49:00,
2013-05-26 01:52:00,66.0,58.6,29.29,South,182,0.0,2.7,77,0.00,,---,0.00,VWS V14.00,2013-05-26 06:52:00,
2013-05-26 01:55:00,66.0,58.6,29.29,South,182,0.0,2.7,77,0.00,,---,0.00,VWS V14.00,2013-05-26 06:55:00,
2013-05-26 01:58:00,66.0,58.6,29.29,South,182,0.0,2.7,77,0.00,,---,0.00,VWS V14.00,2013-05-26 06:58:00,
2013-05-26 02:01:00,66.0,58.6,29.29,South,182,0.0,2.7,77,0.00,,---,0.00,VWS V14.00,2013-05-26 07:01:00,
2013-05-26 02:04:00,66.0,58.6,29.29,South,182,0.0,2.7,77,0.00,,---,0.00,VWS V14.00,2013-05-26 07:04:00,
2013-05-26 02:06:00,65.8,58.4,29.29,South,182,0.0,2.7,77,0.00,,---,0.00,VWS V14.00,2013-05-26 07:06:00,
2013-05-26 02:10:00,65.8,58.4,29.29,South,182,0.0,0.0,77,0.00,,---,0.00,VWS V14.00,2013-05-26 07:10:00,
2013-05-26 02:13:00,65.8,58.4,29.29,South,182,0.0,0.0,77,0.00,,---,0.00,VWS V14.00,2013-05-26 07:13:00,
2013-05-26 02:16:00,65.6,58.2,29.29,South,182,0.0,0.0,77,0.00,,---,0.00,VWS V14.00,2013-05-26 07:16:00,
2013-05-26 02:19:00,65.6,57.9,29.29,South,182,0.0,0.0,76,0.00,,---,0.00,VWS V14.00,2013-05-26 07:19:00,
2013-05-26 02:21:00,65.6,57.9,29.29,South,182,0.0,0.0,76,0.00,,---,0.00,VWS V14.00,2013-05-26 07:21:00,
2013-05-26 02:28:00,65.6,57.9,29.29,South,182,0.0,0.0,76,0.00,,---,0.00,VWS V14.00,2013-05-26 07:28:00,
2013-05-26 02:31:00,65.6,57.9,29.29,South,182,0.0,0.0,76,0.00,,---,0.00,VWS V14.00,2013-05-26 07:31:00,
2013-05-26 02:34:00,65.6,57.9,29.29,South,182,0.0,0.0,76,0.00,,---,0.00,VWS V14.00,2013-05-26 07:34:00,
2013-05-26 02:37:00,65.6,57.9,29.29,South,182,0.0,0.0,76,0.00,,---,0.00,VWS V14.00,2013-05-26 07:37:00,
2013-05-26 02:40:00,65.6,57.9,29.29,South,182,0.0,0.0,76,0.00,,---,0.00,VWS V14.00,2013-05-26 07:40:00,
2013-05-26 02:43:00,65.1,57.7,29.29,South,182,0.0,0.0,77,0.00,,---,0.00,VWS V14.00,2013-05-26 07:43:00,
2013-05-26 02:46:00,65.1,57.7,29.29,South,182,0.0,0.0,77,0.00,,---,0.00,VWS V14.00,2013-05-26 07:46:00,
2013-05-26 02:49:00,65.1,57.7,29.29,South,182,0.0,0.0,77,0.00,,---,0.00,VWS V14.00,2013-05-26 07:49:00,
2013-05-26 02:52:00,64.7,57.7,29.29,South,182,0.0,0.0,78,0.00,,---,0.00,VWS V14.00,2013-05-26 07:52:00,
2013-05-26 02:58:00,64.9,57.2,29.29,South,182,0.0,0.0,76,0.00,,---,0.00,VWS V14.00,2013-05-26 07:58:00,
2013-05-26 03:01:00,64.9,57.2,29.29,South,189,2.2,2.2,76,0.00,,---,0.00,VWS V14.00,2013-05-26 08:01:00,
2013-05-26 03:04:00,64.9,57.2,29.29,South,189,3.6,3.6,76,0.00,,---,0.00,VWS V14.00,2013-05-26 08:04:00,
2013-05-26 03:06:00,64.9,57.2,29.29,South,189,2.7,3.6,76,0.00,,---,0.00,VWS V14.00,2013-05-26 08:06:00,
2013-05-26 03:07:00,64.9,57.2,29.29,South,189,2.7,2.7,76,0.00,,---,0.00,VWS V14.00,2013-05-26 08:07:00,
2013-05-26 03:10:00,64.7,57.0,29.29,South,189,2.7,2.7,76,0.00,,---,0.00,VWS V14.00,2013-05-26 08:10:00,
2013-05-26 03:16:00,64.6,57.2,29.26,South,189,0.0,2.7,77,0.00,,---,0.00,VWS V14.00,2013-05-26 08:16:00,
2013-05-26 03:19:00,64.6,57.2,29.26,South,189,0.0,2.7,77,0.00,,---,0.00,VWS V14.00,2013-05-26 08:19:00,
2013-05-26 03:22:00,64.6,57.2,29.26,South,189,0.0,0.0,77,0.00,,---,0.00,VWS V14.00,2013-05-26 08:22:00,
2013-05-26 03:25:00,64.6,57.2,29.26,South,189,0.0,0.0,77,0.00,,---,0.00,VWS V14.00,2013-05-26 08:25:00,
2013-05-26 03:28:00,64.6,57.2,29.26,South,189,0.0,0.0,77,0.00,,---,0.00,VWS V14.00,2013-05-26 08:28:00,
2013-05-26 03:34:00,64.6,57.2,29.26,South,189,0.0,0.0,77,0.00,,---,0.00,VWS V14.00,2013-05-26 08:34:00,
2013-05-26 03:36:00,64.4,57.4,29.26,South,189,0.0,0.0,78,0.00,,---,0.00,VWS V14.00,2013-05-26 08:36:00,
2013-05-26 03:43:00,64.4,57.4,29.26,South,189,0.0,0.0,78,0.00,,---,0.00,VWS V14.00,2013-05-26 08:43:00,
2013-05-26 03:46:00,64.4,57.4,29.26,South,189,0.0,0.0,78,0.00,,---,0.00,VWS V14.00,2013-05-26 08:46:00,
2013-05-26 03:49:00,64.4,57.0,29.26,South,189,0.0,0.0,77,0.00,,---,0.00,VWS V14.00,2013-05-26 08:49:00,
2013-05-26 03:51:00,64.4,57.0,29.26,South,189,0.0,0.0,77,0.00,,---,0.00,VWS V14.00,2013-05-26 08:51:00,
2013-05-26 03:58:00,64.4,57.0,29.26,South,189,0.0,0.0,77,0.00,,---,0.00,VWS V14.00,2013-05-26 08:58:00,
2013-05-26 04:04:00,64.2,56.5,29.26,South,189,0.0,0.0,76,0.00,,---,0.00,VWS V14.00,2013-05-26 09:04:00,
2013-05-26 04:06:00,64.2,56.5,29.26,South,189,0.0,0.0,76,0.00,,---,0.00,VWS V14.00,2013-05-26 09:06:00,
2013-05-26 04:10:00,64.2,56.5,29.26,South,189,0.0,0.0,76,0.00,,---,0.00,VWS V14.00,2013-05-26 09:10:00,
2013-05-26 04:13:00,64.2,56.5,29.26,South,189,0.0,0.0,76,0.00,,---,0.00,VWS V14.00,2013-05-26 09:13:00,
2013-05-26 04:16:00,63.8,57.2,29.26,South,189,0.0,0.0,79,0.00,,---,0.00,VWS V14.00,2013-05-26 09:16:00,
2013-05-26 04:21:00,63.8,57.2,29.26,South,189,0.0,0.0,79,0.00,,---,0.00,VWS V14.00,2013-05-26 09:21:00,
2013-05-26 04:22:00,63.8,57.2,29.26,South,189,0.0,0.0,79,0.00,,---,0.00,VWS V14.00,2013-05-26 09:22:00,
2013-05-26 04:25:00,63.8,57.2,29.26,South,189,0.0,0.0,79,0.00,,---,0.00,VWS V14.00,2013-05-26 09:25:00,
2013-05-26 04:28:00,63.7,56.7,29.26,South,189,0.0,0.0,78,0.00,,---,0.00,VWS V14.00,2013-05-26 09:28:00,
2013-05-26 04:31:00,63.7,56.7,29.26,South,189,0.0,0.0,78,0.00,,---,0.00,VWS V14.00,2013-05-26 09:31:00,
2013-05-26 04:34:00,63.8,56.5,29.26,South,189,3.1,3.1,77,0.00,,---,0.00,VWS V14.00,2013-05-26 09:34:00,
2013-05-26 04:38:00,63.8,56.5,29.26,SSW,194,2.7,3.1,77,0.00,,---,0.00,VWS V14.00,2013-05-26 09:38:00,
2013-05-26 04:41:00,63.8,56.5,29.26,SE,146,0.0,3.1,77,0.00,,---,0.00,VWS V14.00,2013-05-26 09:41:00,
2013-05-26 04:47:00,63.7,56.3,29.26,SE,136,0.0,3.1,77,0.00,,---,0.00,VWS V14.00,2013-05-26 09:47:00,
2013-05-26 04:50:00,63.5,56.5,29.26,SE,137,0.0,3.1,78,0.00,,---,0.00,VWS V14.00,2013-05-26 09:50:00,
2013-05-26 04:51:00,63.5,56.5,29.26,SE,137,0.0,3.1,78,0.00,,---,0.00,VWS V14.00,2013-05-26 09:51:00,
2013-05-26 04:53:00,63.5,56.5,29.26,SE,137,0.0,0.0,78,0.00,,---,0.00,VWS V14.00,2013-05-26 09:53:00,
2013-05-26 04:56:00,63.5,56.5,29.26,SE,137,0.0,0.0,78,0.00,,---,0.00,VWS V14.00,2013-05-26 09:56:00,
2013-05-26 04:59:00,63.5,56.5,29.26,SE,137,0.0,0.0,78,0.00,,---,0.00,VWS V14.00,2013-05-26 09:59:00,
2013-05-26 05:05:00,63.3,56.3,29.26,SE,137,0.0,0.0,78,0.00,,---,0.00,VWS V14.00,2013-05-26 10:05:00,
2013-05-26 05:06:00,63.3,56.3,29.26,SE,137,0.0,0.0,78,0.00,,---,0.00,VWS V14.00,2013-05-26 10:06:00,
2013-05-26 05:08:00,63.3,56.3,29.26,SSE,161,2.7,2.7,78,0.00,,---,0.00,VWS V14.00,2013-05-26 10:08:00,
2013-05-26 05:11:00,63.1,56.2,29.26,SSE,161,2.2,2.7,78,0.00,,---,0.00,VWS V14.00,2013-05-26 10:11:00,
2013-05-26 05:17:00,63.1,56.2,29.26,SSE,161,0.0,2.7,78,0.00,,---,0.00,VWS V14.00,2013-05-26 10:17:00,
2013-05-26 05:20:00,63.1,56.2,29.26,SSE,161,0.0,2.7,78,0.00,,---,0.00,VWS V14.00,2013-05-26 10:20:00,
2013-05-26 05:21:00,63.1,56.2,29.26,South,183,2.7,3.1,78,0.00,,---,0.00,VWS V14.00,2013-05-26 10:21:00,
2013-05-26 05:23:00,63.1,56.2,29.26,South,183,2.7,2.7,78,0.00,,---,0.00,VWS V14.00,2013-05-26 10:23:00,
2013-05-26 05:26:00,63.1,56.2,29.26,South,181,3.1,3.1,78,0.00,,---,0.00,VWS V14.00,2013-05-26 10:26:00,
2013-05-26 05:29:00,63.1,56.2,29.26,South,181,2.7,3.1,78,0.00,,---,0.00,VWS V14.00,2013-05-26 10:29:00,
2013-05-26 05:32:00,63.1,56.2,29.26,South,181,2.7,3.1,78,0.00,,---,0.00,VWS V14.00,2013-05-26 10:32:00,
2013-05-26 05:35:00,62.9,56.3,29.26,SSE,164,2.7,3.1,79,0.00,,---,0.00,VWS V14.00,2013-05-26 10:35:00,
2013-05-26 05:41:00,62.9,56.3,29.26,South,174,0.0,2.7,79,0.00,,---,0.00,VWS V14.00,2013-05-26 10:41:00,
2013-05-26 05:44:00,62.9,56.0,29.26,South,174,0.0,2.7,78,0.00,,---,0.00,VWS V14.00,2013-05-26 10:44:00,
2013-05-26 05:47:00,62.9,56.0,29.26,SSE,150,3.1,3.1,78,0.00,,---,0.00,VWS V14.00,2013-05-26 10:47:00,
2013-05-26 05:51:00,63.1,56.2,29.26,SSE,150,2.7,3.1,78,0.00,,---,0.00,VWS V14.00,2013-05-26 10:51:00,
2013-05-26 05:53:00,63.1,56.2,29.26,SSE,150,2.7,2.7,78,0.00,,---,0.00,VWS V14.00,2013-05-26 10:53:00,
2013-05-26 05:59:00,62.9,56.0,29.26,SSE,153,0.0,2.7,78,0.00,,---,0.00,VWS V14.00,2013-05-26 10:59:00,
2013-05-26 06:02:00,62.9,56.0,29.26,SSE,153,0.0,2.7,78,0.00,,---,0.00,VWS V14.00,2013-05-26 11:02:00,
2013-05-26 06:08:00,62.9,56.0,29.26,SSE,153,0.0,0.0,78,0.00,,---,0.00,VWS V14.00,2013-05-26 11:08:00,
2013-05-26 06:11:00,62.9,56.0,29.26,SSE,153,0.0,0.0,78,0.00,,---,0.00,VWS V14.00,2013-05-26 11:11:00,
2013-05-26 06:17:00,62.9,56.0,29.29,SSE,153,0.0,0.0,78,0.00,,---,0.00,VWS V14.00,2013-05-26 11:17:00,
2013-05-26 06:20:00,62.9,56.0,29.29,SSE,153,0.0,0.0,78,0.00,,---,0.00,VWS V14.00,2013-05-26 11:20:00,
2013-05-26 06:26:00,62.9,56.0,29.29,SSE,153,0.0,0.0,78,0.00,,---,0.00,VWS V14.00,2013-05-26 11:26:00,
2013-05-26 06:32:00,62.9,56.3,29.29,SSE,153,0.0,0.0,79,0.00,,---,0.00,VWS V14.00,2013-05-26 11:32:00,
2013-05-26 06:36:00,63.1,56.5,29.29,SSE,153,0.0,0.0,79,0.00,,---,0.00,VWS V14.00,2013-05-26 11:36:00,
2013-05-26 06:38:00,63.1,56.2,29.29,SSE,153,0.0,0.0,78,0.00,,---,0.00,VWS V14.00,2013-05-26 11:38:00,
2013-05-26 06:41:00,63.1,56.2,29.29,SSE,153,0.0,0.0,78,0.00,,---,0.00,VWS V14.00,2013-05-26 11:41:00,
2013-05-26 06:44:00,63.3,56.7,29.29,SSE,153,0.0,0.0,79,0.00,,---,0.00,VWS V14.00,2013-05-26 11:44:00,
2013-05-26 06:47:00,63.5,56.5,29.29,SSE,153,0.0,0.0,78,0.00,,---,0.00,VWS V14.00,2013-05-26 11:47:00,
2013-05-26 06:50:00,63.5,56.5,29.29,SSE,153,0.0,0.0,78,0.00,,---,0.00,VWS V14.00,2013-05-26 11:50:00,
2013-05-26 06:53:00,63.7,56.7,29.29,SSE,153,0.0,0.0,78,0.00,,---,0.00,VWS V14.00,2013-05-26 11:53:00,
2013-05-26 06:56:00,63.7,56.7,29.29,SSE,153,0.0,0.0,78,0.00,,---,0.00,VWS V14.00,2013-05-26 11:56:00,
2013-05-26 06:59:00,63.8,56.9,29.29,SSE,153,0.0,0.0,78,0.00,,---,0.00,VWS V14.00,2013-05-26 11:59:00,
2013-05-26 07:02:00,64.0,56.7,29.29,SSE,153,0.0,0.0,77,0.00,,---,0.00,VWS V14.00,2013-05-26 12:02:00,
2013-05-26 07:05:00,64.2,56.8,29.29,SSE,153,0.0,0.0,77,0.00,,---,0.00,VWS V14.00,2013-05-26 12:05:00,
2013-05-26 07:06:00,64.2,56.5,29.29,SSE,153,0.0,0.0,76,0.00,,---,0.00,VWS V14.00,2013-05-26 12:06:00,
2013-05-26 07:11:00,64.2,56.5,29.29,South,176,3.6,3.6,76,0.00,,---,0.00,VWS V14.00,2013-05-26 12:11:00,
2013-05-26 07:14:00,64.4,56.3,29.29,South,176,3.6,3.6,75,0.00,,---,0.00,VWS V14.00,2013-05-26 12:14:00,
2013-05-26 07:17:00,64.6,56.5,29.29,South,183,0.0,3.6,75,0.00,,---,0.00,VWS V14.00,2013-05-26 12:17:00,
2013-05-26 07:20:00,64.6,56.5,29.29,South,183,2.2,3.6,75,0.00,,---,0.00,VWS V14.00,2013-05-26 12:20:00,
2013-05-26 07:23:00,64.7,56.3,29.29,South,184,3.1,3.1,74,0.00,,---,0.00,VWS V14.00,2013-05-26 12:23:00,
2013-05-26 07:29:00,64.9,56.4,29.29,South,184,2.7,3.1,74,0.00,,---,0.00,VWS V14.00,2013-05-26 12:29:00,
2013-05-26 07:32:00,65.1,56.6,29.29,South,182,3.1,3.1,74,0.00,,---,0.00,VWS V14.00,2013-05-26 12:32:00,
2013-05-26 07:35:00,65.3,56.4,29.29,South,182,3.1,3.1,73,0.00,,---,0.00,VWS V14.00,2013-05-26 12:35:00,
2013-05-26 07:36:00,65.3,56.4,29.29,South,182,3.1,3.1,73,0.00,,---,0.00,VWS V14.00,2013-05-26 12:36:00,
2013-05-26 07:38:00,65.3,56.4,29.29,SSE,164,3.6,3.6,73,0.00,,---,0.00,VWS V14.00,2013-05-26 12:38:00,
2013-05-26 07:44:00,65.6,56.8,29.29,SSE,158,2.7,5.4,73,0.00,,---,0.00,VWS V14.00,2013-05-26 12:44:00,
2013-05-26 07:47:00,65.6,56.8,29.29,SSE,165,3.1,5.4,73,0.00,,---,0.00,VWS V14.00,2013-05-26 12:47:00,
2013-05-26 07:50:00,65.8,56.5,29.29,SSE,166,4.5,5.4,72,0.00,,---,0.00,VWS V14.00,2013-05-26 12:50:00,
2013-05-26 07:53:00,66.0,56.7,29.29,SSE,150,5.8,5.8,72,0.00,,---,0.00,VWS V14.00,2013-05-26 12:53:00,
2013-05-26 07:56:00,66.2,56.5,29.29,South,170,5.4,5.8,71,0.00,,---,0.00,VWS V14.00,2013-05-26 12:56:00,
2013-05-26 07:59:00,66.2,56.5,29.29,South,170,5.4,5.8,71,0.00,,---,0.00,VWS V14.00,2013-05-26 12:59:00,
2013-05-26 08:05:00,66.2,56.5,29.29,SSE,165,4.9,6.3,71,0.00,,---,0.00,VWS V14.00,2013-05-26 13:05:00,
2013-05-26 08:08:00,66.5,56.9,29.29,South,181,5.4,5.4,71,0.00,,---,0.00,VWS V14.00,2013-05-26 13:08:00,
2013-05-26 08:11:00,66.7,57.0,29.29,South,170,5.8,5.8,71,0.00,,---,0.00,VWS V14.00,2013-05-26 13:11:00,
2013-05-26 08:17:00,66.9,57.2,29.29,SSE,157,5.4,5.8,71,0.00,,---,0.00,VWS V14.00,2013-05-26 13:17:00,
2013-05-26 08:21:00,66.9,57.2,29.29,SSE,164,4.0,5.8,71,0.00,,---,0.00,VWS V14.00,2013-05-26 13:21:00,
2013-05-26 08:23:00,67.3,57.2,29.29,SSE,163,7.6,7.6,70,0.00,,---,0.00,VWS V14.00,2013-05-26 13:23:00,
2013-05-26 08:29:00,67.3,57.2,29.29,South,176,5.8,7.6,70,0.00,,---,0.00,VWS V14.00,2013-05-26 13:29:00,
2013-05-26 08:35:00,67.8,56.9,29.29,South,182,5.8,7.6,68,0.00,,---,0.00,VWS V14.00,2013-05-26 13:35:00,
2013-05-26 08:36:00,67.8,56.9,29.29,South,182,5.8,7.6,68,0.00,,---,0.00,VWS V14.00,2013-05-26 13:36:00,
2013-05-26 08:38:00,68.2,57.2,29.29,South,176,5.8,5.8,68,0.00,,---,0.00,VWS V14.00,2013-05-26 13:38:00,
2013-05-26 08:41:00,68.2,57.2,29.29,South,190,4.0,6.3,68,0.00,,---,0.00,VWS V14.00,2013-05-26 13:41:00,
2013-05-26 08:47:00,68.5,57.5,29.29,SSE,147,5.8,6.3,68,0.00,,---,0.00,VWS V14.00,2013-05-26 13:47:00,
2013-05-26 08:50:00,68.7,57.7,29.29,SSE,149,3.6,6.3,68,0.00,,---,0.00,VWS V14.00,2013-05-26 13:50:00,
2013-05-26 08:51:00,68.7,57.7,29.29,SSE,165,5.4,6.3,68,0.00,,---,0.00,VWS V14.00,2013-05-26 13:51:00,
2013-05-26 08:53:00,69.1,58.1,29.29,SSE,165,5.4,5.4,68,0.00,,---,0.00,VWS V14.00,2013-05-26 13:53:00,
2013-05-26 08:56:00,69.1,58.1,29.29,SSE,159,5.8,5.8,68,0.00,,---,0.00,VWS V14.00,2013-05-26 13:56:00,
2013-05-26 09:02:00,69.6,58.2,29.29,South,175,4.9,5.8,67,0.00,,---,0.00,VWS V14.00,2013-05-26 14:02:00,
2013-05-26 09:05:00,69.8,58.3,29.29,SSE,156,4.0,5.8,67,0.00,,---,0.00,VWS V14.00,2013-05-26 14:05:00,
2013-05-26 09:06:00,69.8,58.3,29.29,SSE,166,5.4,5.8,67,0.00,,---,0.00,VWS V14.00,2013-05-26 14:06:00,
2013-05-26 09:11:00,69.8,58.3,29.29,SSE,166,5.4,5.4,67,0.00,,---,0.00,VWS V14.00,2013-05-26 14:11:00,
2013-05-26 09:17:00,70.5,58.6,29.29,South,173,5.8,5.8,66,0.00,,---,0.00,VWS V14.00,2013-05-26 14:17:00,
2013-05-26 09:23:00,70.7,59.2,29.29,SSE,153,4.9,5.8,67,0.00,,---,0.00,VWS V14.00,2013-05-26 14:23:00,
2013-05-26 09:26:00,71.0,59.5,29.29,SSE,168,5.8,5.8,67,0.00,,---,0.00,VWS V14.00,2013-05-26 14:26:00,
2013-05-26 09:29:00,71.4,59.5,29.29,SSE,160,4.9,5.8,66,0.00,,---,0.00,VWS V14.00,2013-05-26 14:29:00,
2013-05-26 09:32:00,71.6,59.6,29.29,SSE,168,3.6,5.8,66,0.00,,---,0.00,VWS V14.00,2013-05-26 14:32:00,
2013-05-26 09:35:00,71.6,59.6,29.29,South,173,5.4,5.8,66,0.00,,---,0.00,VWS V14.00,2013-05-26 14:35:00,
2013-05-26 09:36:00,71.6,59.6,29.29,South,173,5.4,5.8,66,0.00,,---,0.00,VWS V14.00,2013-05-26 14:36:00,
2013-05-26 09:38:00,71.9,60.0,29.29,SSE,150,4.0,5.4,66,0.00,,---,0.00,VWS V14.00,2013-05-26 14:38:00,
2013-05-26 09:41:00,72.1,60.2,29.29,SSE,150,4.0,5.4,66,0.00,,---,0.00,VWS V14.00,2013-05-26 14:41:00,
2013-05-26 09:44:00,72.1,60.2,29.29,SSE,157,5.4,5.4,66,0.00,,---,0.00,VWS V14.00,2013-05-26 14:44:00,
2013-05-26 09:47:00,72.5,60.5,29.29,SSE,157,5.4,5.4,66,0.00,,---,0.00,VWS V14.00,2013-05-26 14:47:00,
2013-05-26 09:51:00,72.8,60.8,29.29,SE,141,3.6,5.4,66,0.00,,---,0.00,VWS V14.00,2013-05-26 14:51:00,
2013-05-26 09:53:00,73.0,61.0,29.29,South,182,5.4,5.4,66,0.00,,---,0.00,VWS V14.00,2013-05-26 14:53:00,
2013-05-26 09:56:00,73.2,61.2,29.29,South,182,5.4,5.4,66,0.00,,---,0.00,VWS V14.00,2013-05-26 14:56:00,
2013-05-26 09:59:00,73.2,61.2,29.29,SSE,161,5.8,5.8,66,0.00,,---,0.00,VWS V14.00,2013-05-26 14:59:00,
2013-05-26 10:02:00,73.6,61.5,29.29,South,179,5.4,5.8,66,0.00,,---,0.00,VWS V14.00,2013-05-26 15:02:00,
2013-05-26 10:06:00,73.9,61.9,29.29,SSE,166,4.9,5.8,66,0.00,,---,0.00,VWS V14.00,2013-05-26 15:06:00,
2013-05-26 10:08:00,73.9,61.9,29.29,SE,135,3.6,4.9,66,0.00,,---,0.00,VWS V14.00,2013-05-26 15:08:00,
2013-05-26 10:11:00,74.3,62.6,29.29,SSE,166,5.4,5.4,67,0.00,,---,0.00,VWS V14.00,2013-05-26 15:11:00,
2013-05-26 10:17:00,74.5,62.8,29.29,SSE,156,5.4,5.4,67,0.00,,---,0.00,VWS V14.00,2013-05-26 15:17:00,
2013-05-26 10:20:00,74.8,63.1,29.29,SE,137,3.6,5.4,67,0.00,,---,0.00,VWS V14.00,2013-05-26 15:20:00,
2013-05-26 10:23:00,75.0,63.3,29.29,SSE,149,3.6,3.6,67,0.00,,---,0.00,VWS V14.00,2013-05-26 15:23:00,
2013-05-26 10:26:00,75.0,63.3,29.29,SSE,157,4.0,4.0,67,0.00,,---,0.00,VWS V14.00,2013-05-26 15:26:00,
2013-05-26 10:29:00,75.0,63.3,29.29,SSE,157,4.0,4.0,67,0.00,,---,0.00,VWS V14.00,2013-05-26 15:29:00,
2013-05-26 10:33:00,75.9,63.7,29.29,SSE,160,3.1,4.0,66,0.00,,---,0.00,VWS V14.00,2013-05-26 15:33:00,
2013-05-26 10:36:00,75.9,63.7,29.29,SE,138,3.6,5.4,66,0.00,,---,0.00,VWS V14.00,2013-05-26 15:36:00,
2013-05-26 10:39:00,75.9,63.7,29.29,SE,145,3.1,3.6,66,0.00,,---,0.00,VWS V14.00,2013-05-26 15:39:00,
2013-05-26 10:42:00,76.4,64.2,29.29,SE,145,3.1,3.6,66,0.00,,---,0.00,VWS V14.00,2013-05-26 15:42:00,
2013-05-26 10:45:00,76.4,64.2,29.29,SE,145,3.1,3.6,66,0.00,,---,0.00,VWS V14.00,2013-05-26 15:45:00,
2013-05-26 10:51:00,77.0,64.3,29.29,SSW,193,5.4,5.4,65,0.00,,---,0.00,VWS V14.00,2013-05-26 15:51:00,
2013-05-26 10:54:00,77.3,64.7,29.29,SSE,157,5.4,5.4,65,0.00,,---,0.00,VWS V14.00,2013-05-26 15:54:00,
2013-05-26 10:57:00,77.5,64.8,29.29,SSE,157,5.4,5.4,65,0.00,,---,0.00,VWS V14.00,2013-05-26 15:57:00,
2013-05-26 11:00:00,77.9,65.6,29.29,SSE,157,3.6,5.4,66,0.00,,---,0.00,VWS V14.00,2013-05-26 16:00:00,
2013-05-26 11:06:00,78.4,66.1,29.29,SE,143,4.0,5.4,66,0.00,,---,0.00,VWS V14.00,2013-05-26 16:06:00,
2013-05-26 11:12:00,79.0,66.2,29.29,SSE,163,5.8,5.8,65,0.00,,---,0.00,VWS V14.00,2013-05-26 16:12:00,
2013-05-26 11:15:00,79.0,65.8,29.29,South,186,6.3,6.3,64,0.00,,---,0.00,VWS V14.00,2013-05-26 16:15:00,
2013-05-26 11:18:00,79.0,65.8,29.29,South,186,6.3,6.3,64,0.00,,---,0.00,VWS V14.00,2013-05-26 16:18:00,
2013-05-26 11:21:00,79.3,66.1,29.29,South,173,4.9,6.3,64,0.00,,---,0.00,VWS V14.00,2013-05-26 16:21:00,
2013-05-26 11:24:00,79.5,66.3,29.29,South,172,3.6,4.9,64,0.00,,---,0.00,VWS V14.00,2013-05-26 16:24:00,
2013-05-26 11:27:00,79.9,66.2,29.29,South,177,6.3,6.3,63,0.00,,---,0.00,VWS V14.00,2013-05-26 16:27:00,
2013-05-26 11:30:00,80.0,66.3,29.29,South,183,5.8,6.3,63,0.00,,---,0.00,VWS V14.00,2013-05-26 16:30:00,
2013-05-26 11:36:00,80.6,66.8,29.29,SSW,195,5.4,6.3,63,0.00,,---,0.00,VWS V14.00,2013-05-26 16:36:00,
2013-05-26 11:42:00,80.6,66.4,29.29,SSE,164,5.4,5.4,62,0.00,,---,0.00,VWS V14.00,2013-05-26 16:42:00,
2013-05-26 11:48:00,80.6,66.4,29.29,South,169,4.0,5.4,62,0.00,,---,0.00,VWS V14.00,2013-05-26 16:48:00,
2013-05-26 11:51:00,81.5,67.2,29.29,South,183,3.1,5.4,62,0.00,,---,0.00,VWS V14.00,2013-05-26 16:51:00,
2013-05-26 11:54:00,81.5,67.2,29.29,South,172,2.7,3.1,62,0.00,,---,0.00,VWS V14.00,2013-05-26 16:54:00,
2013-05-26 11:57:00,82.0,67.2,29.29,South,171,3.6,3.6,61,0.00,,---,0.00,VWS V14.00,2013-05-26 16:57:00,
2013-05-26 12:00:00,82.0,67.2,29.29,South,171,3.6,3.6,61,0.00,,---,0.00,VWS V14.00,2013-05-26 17:00:00,
2013-05-26 12:03:00,82.2,66.9,29.29,SSE,163,3.1,3.6,60,0.00,,---,0.00,VWS V14.00,2013-05-26 17:03:00,
2013-05-26 12:06:00,82.2,66.9,29.29,SSE,163,3.1,3.6,60,0.00,,---,0.00,VWS V14.00,2013-05-26 17:06:00,
2013-05-26 12:12:00,81.8,66.1,29.26,South,170,5.4,5.4,59,0.00,,---,0.00,VWS V14.00,2013-05-26 17:12:00,
2013-05-26 12:15:00,81.8,66.1,29.26,South,170,5.4,5.4,59,0.00,,---,0.00,VWS V14.00,2013-05-26 17:15:00,
2013-05-26 12:18:00,82.0,66.3,29.26,South,170,5.4,5.4,59,0.00,,---,0.00,VWS V14.00,2013-05-26 17:18:00,
2013-05-26 12:21:00,82.0,66.3,29.26,SSE,167,8.1,8.1,59,0.00,,---,0.00,VWS V14.00,2013-05-26 17:21:00,
2013-05-26 12:27:00,82.0,66.3,29.26,SSE,165,4.9,8.1,59,0.00,,---,0.00,VWS V14.00,2013-05-26 17:27:00,
2013-05-26 12:33:00,82.2,66.5,29.26,SSE,168,5.4,8.1,59,0.00,,---,0.00,VWS V14.00,2013-05-26 17:33:00,
2013-05-26 12:39:00,82.4,67.1,29.26,SSE,154,5.8,5.8,60,0.00,,---,0.00,VWS V14.00,2013-05-26 17:39:00,
2013-05-26 12:45:00,83.5,67.6,29.26,SSE,164,5.4,6.7,59,0.00,,---,0.00,VWS V14.00,2013-05-26 17:45:00,
2013-05-26 12:51:00,83.3,66.0,29.26,SSE,158,3.6,6.7,56,0.00,,---,0.00,VWS V14.00,2013-05-26 17:51:00,
2013-05-26 12:57:00,82.9,65.6,29.26,SSE,167,7.6,7.6,56,0.00,,---,0.00,VWS V14.00,2013-05-26 17:57:00,
2013-05-26 13:03:00,82.9,65.6,29.26,SE,142,5.4,7.6,56,0.00,,---,0.00,VWS V14.00,2013-05-26 18:03:00,
2013-05-26 13:06:00,82.9,65.6,29.26,SE,142,5.4,5.4,56,0.00,,---,0.00,VWS V14.00,2013-05-26 18:06:00,
2013-05-26 13:12:00,83.3,66.0,29.26,SSE,165,5.8,5.8,56,0.00,,---,0.00,VWS V14.00,2013-05-26 18:12:00,
2013-05-26 13:15:00,83.3,66.0,29.26,SSE,148,5.4,5.8,56,0.00,,---,0.00,VWS V14.00,2013-05-26 18:15:00,
2013-05-26 13:18:00,83.3,66.0,29.26,SSE,166,5.4,5.8,56,0.00,,---,0.00,VWS V14.00,2013-05-26 18:18:00,
2013-05-26 13:21:00,82.7,65.5,29.26,SE,141,4.9,5.8,56,0.00,,---,0.00,VWS V14.00,2013-05-26 18:21:00,
2013-05-26 13:24:00,82.7,65.5,29.26,SSE,151,4.5,4.9,56,0.00,,---,0.00,VWS V14.00,2013-05-26 18:24:00,
2013-05-26 13:27:00,82.6,65.3,29.26,SSE,151,4.5,4.9,56,0.00,,---,0.00,VWS V14.00,2013-05-26 18:27:00,
2013-05-26 13:30:00,82.4,65.1,29.26,SSE,168,5.8,5.8,56,0.00,,---,0.00,VWS V14.00,2013-05-26 18:30:00,
2013-05-26 13:33:00,82.2,65.0,29.26,SSE,167,6.3,6.3,56,0.00,,---,0.00,VWS V14.00,2013-05-26 18:33:00,
2013-05-26 13:36:00,81.8,65.1,29.26,SSE,152,5.8,6.3,57,0.00,,---,0.00,VWS V14.00,2013-05-26 18:36:00,
2013-05-26 13:39:00,81.7,64.5,29.26,SSE,152,5.8,5.8,56,0.00,,---,0.00,VWS V14.00,2013-05-26 18:39:00,
2013-05-26 13:42:00,81.8,65.1,29.26,SSE,152,5.8,5.8,57,0.00,,---,0.00,VWS V14.00,2013-05-26 18:42:00,
2013-05-26 13:45:00,81.8,65.1,29.26,SSE,152,5.8,5.8,57,0.00,,---,0.00,VWS V14.00,2013-05-26 18:45:00,
2013-05-26 13:48:00,82.2,64.4,29.26,SSE,150,4.0,5.8,55,0.00,,---,0.00,VWS V14.00,2013-05-26 18:48:00,
2013-05-26 13:51:00,82.4,64.6,29.26,SSE,150,4.0,5.8,55,0.00,,---,0.00,VWS V14.00,2013-05-26 18:51:00,
2013-05-26 13:54:00,82.6,64.2,29.26,SSW,203,4.9,4.9,54,0.00,,---,0.00,VWS V14.00,2013-05-26 18:54:00,
2013-05-26 13:57:00,82.6,64.2,29.26,SSW,203,4.9,4.9,54,0.00,,---,0.00,VWS V14.00,2013-05-26 18:57:00,
2013-05-26 14:00:00,82.6,65.8,29.26,SSW,203,4.9,4.9,57,0.00,,---,0.00,VWS V14.00,2013-05-26 19:00:00,
2013-05-26 14:03:00,82.7,66.0,29.26,WSW,240,4.9,4.9,57,0.00,,---,0.00,VWS V14.00,2013-05-26 19:03:00,
2013-05-26 14:06:00,82.9,66.6,29.26,South,179,2.2,4.9,58,0.00,,---,0.00,VWS V14.00,2013-05-26 19:06:00,
2013-05-26 14:09:00,83.3,67.0,29.26,SSE,153,3.1,3.1,58,0.00,,---,0.00,VWS V14.00,2013-05-26 19:09:00,
2013-05-26 14:12:00,83.6,66.3,29.23,SSE,153,3.1,3.1,56,0.00,,---,0.00,VWS V14.00,2013-05-26 19:12:00,
2013-05-26 14:15:00,84.0,67.1,29.23,SSE,156,3.6,3.6,57,0.00,,---,0.00,VWS V14.00,2013-05-26 19:15:00,
2013-05-26 14:18:00,84.0,67.1,29.23,South,176,4.0,4.0,57,0.00,,---,0.00,VWS V14.00,2013-05-26 19:18:00,
2013-05-26 14:21:00,84.0,67.1,29.23,SE,128,4.0,4.0,57,0.00,,---,0.00,VWS V14.00,2013-05-26 19:21:00,
2013-05-26 14:27:00,85.1,67.1,29.23,SSE,163,6.7,6.7,55,0.00,,---,0.00,VWS V14.00,2013-05-26 19:27:00,
2013-05-26 14:30:00,85.1,67.1,29.23,South,185,6.3,6.7,55,0.00,,---,0.00,VWS V14.00,2013-05-26 19:30:00,
2013-05-26 14:33:00,85.1,67.1,29.23,SSW,195,6.3,6.7,55,0.00,,---,0.00,VWS V14.00,2013-05-26 19:33:00,
2013-05-26 14:39:00,85.1,67.1,29.23,SSE,157,4.9,4.9,55,0.00,,---,0.00,VWS V14.00,2013-05-26 19:39:00,
2013-05-26 14:42:00,85.1,67.1,29.23,SSE,150,5.4,5.8,55,0.00,,---,0.00,VWS V14.00,2013-05-26 19:42:00,
2013-05-26 14:45:00,85.6,66.5,29.23,SE,142,5.8,5.8,53,0.00,,---,0.00,VWS V14.00,2013-05-26 19:45:00,
2013-05-26 14:48:00,85.6,66.5,29.23,SE,142,5.8,5.8,53,0.00,,---,0.00,VWS V14.00,2013-05-26 19:48:00,
2013-05-26 14:51:00,85.6,66.5,29.23,SSE,164,5.8,5.8,53,0.00,,---,0.00,VWS V14.00,2013-05-26 19:51:00,
2013-05-26 14:57:00,85.6,66.5,29.23,SSE,154,6.3,6.3,53,0.00,,---,0.00,VWS V14.00,2013-05-26 19:57:00,
2013-05-26 15:00:00,85.6,66.5,29.23,SSE,163,5.4,10.5,53,0.00,,---,0.00,VWS V14.00,2013-05-26 20:00:00,
2013-05-26 15:03:00,85.6,66.5,29.23,SSE,162,8.3,10.5,53,0.00,,---,0.00,VWS V14.00,2013-05-26 20:03:00,
2013-05-26 15:06:00,85.6,66.5,29.23,SSE,162,8.3,10.5,53,0.00,,---,0.00,VWS V14.00,2013-05-26 20:06:00,
2013-05-26 15:09:00,86.0,64.0,29.23,SSE,162,8.3,8.3,48,0.00,,---,0.00,VWS V14.00,2013-05-26 20:09:00,
2013-05-26 15:12:00,86.0,64.0,29.23,South,177,7.6,8.3,48,0.00,,---,0.00,VWS V14.00,2013-05-26 20:12:00,
2013-05-26 15:15:00,86.0,64.0,29.23,South,176,6.3,8.3,48,0.00,,---,0.00,VWS V14.00,2013-05-26 20:15:00,
2013-05-26 15:18:00,85.6,64.9,29.23,South,176,6.3,8.3,50,0.00,,---,0.00,VWS V14.00,2013-05-26 20:18:00,
2013-05-26 15:21:00,85.6,64.3,29.21,SSE,152,7.6,8.3,49,0.00,,---,0.00,VWS V14.00,2013-05-26 20:21:00,
2013-05-26 15:27:00,85.4,64.1,29.21,SSE,168,8.1,8.7,49,0.00,,---,0.00,VWS V14.00,2013-05-26 20:27:00,
2013-05-26 15:30:00,85.4,64.1,29.21,SE,142,5.8,8.7,49,0.00,,---,0.00,VWS V14.00,2013-05-26 20:30:00,
2013-05-26 15:36:00,85.4,64.1,29.21,SSW,195,8.1,8.7,49,0.00,,---,0.00,VWS V14.00,2013-05-26 20:36:00,
2013-05-26 15:39:00,85.4,64.1,29.21,South,169,5.8,8.1,49,0.00,,---,0.00,VWS V14.00,2013-05-26 20:39:00,
2013-05-26 15:42:00,85.4,64.1,29.21,South,187,8.1,8.1,49,0.00,,---,0.00,VWS V14.00,2013-05-26 20:42:00,
2013-05-26 15:45:00,85.4,64.1,29.21,SSE,164,8.3,8.3,49,0.00,,---,0.00,VWS V14.00,2013-05-26 20:45:00,
2013-05-26 15:48:00,85.4,64.1,29.21,SSE,157,8.3,8.3,49,0.00,,---,0.00,VWS V14.00,2013-05-26 20:48:00,
2013-05-26 15:51:00,85.4,64.1,29.21,SSE,154,7.6,8.3,49,0.00,,---,0.00,VWS V14.00,2013-05-26 20:51:00,
2013-05-26 15:54:00,85.4,64.1,29.21,SSE,153,8.7,8.7,49,0.00,,---,0.00,VWS V14.00,2013-05-26 20:54:00,
2013-05-26 15:57:00,85.4,64.1,29.21,South,179,7.6,8.7,49,0.00,,---,0.00,VWS V14.00,2013-05-26 20:57:00,
2013-05-26 16:00:00,85.4,64.1,29.21,South,180,5.8,8.7,49,0.00,,---,0.00,VWS V14.00,2013-05-26 21:00:00,
2013-05-26 16:03:00,85.4,64.1,29.21,South,180,5.8,8.7,49,0.00,,---,0.00,VWS V14.00,2013-05-26 21:03:00,
2013-05-26 16:06:00,85.8,64.4,29.21,South,170,9.6,9.6,49,0.00,,---,0.00,VWS V14.00,2013-05-26 21:06:00,
2013-05-26 16:09:00,85.8,64.4,29.21,South,176,5.8,9.6,49,0.00,,---,0.00,VWS V14.00,2013-05-26 21:09:00,
2013-05-26 16:12:00,86.2,64.2,29.21,SSE,148,8.1,11.0,48,0.00,,---,0.00,VWS V14.00,2013-05-26 21:12:00,
2013-05-26 16:15:00,86.2,64.2,29.21,SSE,148,8.1,11.0,48,0.00,,---,0.00,VWS V14.00,2013-05-26 21:15:00,
2013-05-26 16:21:00,86.2,64.2,29.21,SSE,149,5.8,11.0,48,0.00,,---,0.00,VWS V14.00,2013-05-26 21:21:00,
2013-05-26 16:27:00,86.2,64.2,29.21,SSE,168,8.1,8.1,48,0.00,,---,0.00,VWS V14.00,2013-05-26 21:27:00,
2013-05-26 16:30:00,86.2,64.2,29.21,SSE,149,6.3,8.1,48,0.00,,---,0.00,VWS V14.00,2013-05-26 21:30:00,
2013-05-26 16:33:00,86.2,64.2,29.21,SSE,149,6.3,8.1,48,0.00,,---,0.00,VWS V14.00,2013-05-26 21:33:00,
2013-05-26 16:36:00,86.2,64.2,29.21,SSE,149,5.8,8.1,48,0.00,,---,0.00,VWS V14.00,2013-05-26 21:36:00,
2013-05-26 16:39:00,86.2,64.2,29.21,SSE,157,8.1,8.1,48,0.00,,---,0.00,VWS V14.00,2013-05-26 21:39:00,
2013-05-26 16:43:00,86.2,64.2,29.21,SSE,157,8.1,8.1,48,0.00,,---,0.00,VWS V14.00,2013-05-26 21:43:00,
2013-05-26 16:46:00,86.2,64.2,29.21,SSE,157,8.1,8.1,48,0.00,,---,0.00,VWS V14.00,2013-05-26 21:46:00,
2013-05-26 16:51:00,86.2,64.2,29.18,SSE,163,8.3,8.3,48,0.00,,---,0.00,VWS V14.00,2013-05-26 21:51:00,
2013-05-26 16:52:00,86.2,64.2,29.18,SSE,163,8.3,8.3,48,0.00,,---,0.00,VWS V14.00,2013-05-26 21:52:00,
2013-05-26 16:55:00,86.2,64.2,29.18,SSE,163,8.3,8.3,48,0.00,,---,0.00,VWS V14.00,2013-05-26 21:55:00,
2013-05-26 17:01:00,86.2,64.2,29.18,SSE,157,5.4,8.3,48,0.00,,---,0.00,VWS V14.00,2013-05-26 22:01:00,
2013-05-26 17:04:00,86.2,64.2,29.18,SSE,161,8.1,10.1,48,0.00,,---,0.00,VWS V14.00,2013-05-26 22:04:00,
2013-05-26 17:06:00,86.2,64.2,29.18,SE,136,10.5,10.5,48,0.00,,---,0.00,VWS V14.00,2013-05-26 22:06:00,
2013-05-26 17:10:00,86.2,64.2,29.18,SSE,156,7.6,10.5,48,0.00,,---,0.00,VWS V14.00,2013-05-26 22:10:00,
2013-05-26 17:13:00,86.2,64.2,29.18,SE,138,5.8,10.5,48,0.00,,---,0.00,VWS V14.00,2013-05-26 22:13:00,
2013-05-26 17:16:00,86.2,64.2,29.18,South,179,7.6,10.5,48,0.00,,---,0.00,VWS V14.00,2013-05-26 22:16:00,
2013-05-26 17:19:00,86.2,64.2,29.18,South,181,5.4,10.5,48,0.00,,---,0.00,VWS V14.00,2013-05-26 22:19:00,
2013-05-26 17:21:00,86.2,64.2,29.18,SSE,157,4.9,10.5,48,0.00,,---,0.00,VWS V14.00,2013-05-26 22:21:00,
2013-05-26 17:22:00,86.2,64.2,29.18,SSE,157,4.9,4.9,48,0.00,,---,0.00,VWS V14.00,2013-05-26 22:22:00,
2013-05-26 17:25:00,86.2,64.2,29.18,SSE,157,4.9,4.9,48,0.00,,---,0.00,VWS V14.00,2013-05-26 22:25:00,
2013-05-26 17:28:00,86.2,64.2,29.18,South,174,8.3,8.3,48,0.00,,---,0.00,VWS V14.00,2013-05-26 22:28:00,
2013-05-26 17:34:00,86.2,64.2,29.18,SSE,157,6.3,8.3,48,0.00,,---,0.00,VWS V14.00,2013-05-26 22:34:00,
2013-05-26 17:36:00,86.2,64.2,29.18,SE,141,5.8,8.3,48,0.00,,---,0.00,VWS V14.00,2013-05-26 22:36:00,
2013-05-26 17:37:00,88.0,63.3,29.18,SE,141,5.8,5.8,44,0.00,,---,0.00,VWS V14.00,2013-05-26 22:37:00,
2013-05-26 17:43:00,88.0,63.3,29.18,SE,140,8.1,8.1,44,0.00,,---,0.00,VWS V14.00,2013-05-26 22:43:00,
2013-05-26 17:46:00,88.0,63.3,29.18,South,187,8.3,8.3,44,0.00,,---,0.00,VWS V14.00,2013-05-26 22:46:00,
2013-05-26 17:51:00,88.0,63.3,29.18,SE,144,5.4,8.3,44,0.00,,---,0.00,VWS V14.00,2013-05-26 22:51:00,
2013-05-26 17:55:00,88.0,63.3,29.18,SE,142,6.3,6.3,44,0.00,,---,0.00,VWS V14.00,2013-05-26 22:55:00,
2013-05-26 17:58:00,88.0,63.3,29.18,SE,145,3.6,6.3,44,0.00,,---,0.00,VWS V14.00,2013-05-26 22:58:00,
2013-05-26 18:01:00,88.0,63.3,29.18,SE,145,3.6,6.3,44,0.00,,---,0.00,VWS V14.00,2013-05-26 23:01:00,
2013-05-26 18:06:00,88.0,63.3,29.18,South,178,5.8,6.3,44,0.00,,---,0.00,VWS V14.00,2013-05-26 23:06:00,
2013-05-26 18:13:00,88.0,63.3,29.18,SSE,163,6.3,6.3,44,0.00,,---,0.00,VWS V14.00,2013-05-26 23:13:00,
2013-05-26 18:16:00,88.0,63.3,29.18,SSE,163,6.3,6.3,44,0.00,,---,0.00,VWS V14.00,2013-05-26 23:16:00,
2013-05-26 18:19:00,88.0,63.3,29.18,SSE,163,6.3,6.3,44,0.00,,---,0.00,VWS V14.00,2013-05-26 23:19:00,
2013-05-26 18:21:00,88.0,63.3,29.18,SSE,165,6.3,6.3,44,0.00,,---,0.00,VWS V14.00,2013-05-26 23:21:00,
2013-05-26 18:22:00,88.0,63.3,29.18,SE,143,6.3,6.3,44,0.00,,---,0.00,VWS V14.00,2013-05-26 23:22:00,
2013-05-26 18:28:00,81.8,62.5,29.18,South,179,4.0,6.3,52,0.00,,---,0.00,VWS V14.00,2013-05-26 23:28:00,
2013-05-26 18:31:00,81.8,62.5,29.18,SE,143,4.0,6.3,52,0.00,,---,0.00,VWS V14.00,2013-05-26 23:31:00,
2013-05-26 18:36:00,81.8,62.5,29.18,SSE,165,5.4,6.3,52,0.00,,---,0.00,VWS V14.00,2013-05-26 23:36:00,
2013-05-26 18:37:00,81.8,62.5,29.18,SSE,165,5.4,5.4,52,0.00,,---,0.00,VWS V14.00,2013-05-26 23:37:00,
2013-05-26 18:40:00,81.8,62.5,29.18,SSE,165,8.7,8.7,52,0.00,,---,0.00,VWS V14.00,2013-05-26 23:40:00,
2013-05-26 18:43:00,81.8,62.5,29.18,SSE,165,8.7,8.7,52,0.00,,---,0.00,VWS V14.00,2013-05-26 23:43:00,
2013-05-26 18:46:00,81.8,62.5,29.18,SSE,153,5.8,8.7,52,0.00,,---,0.00,VWS V14.00,2013-05-26 23:46:00,
2013-05-26 18:51:00,81.8,62.5,29.18,SSE,153,5.8,8.7,52,0.00,,---,0.00,VWS V14.00,2013-05-26 23:51:00,
2013-05-26 18:55:00,81.8,62.5,29.18,SE,140,5.4,5.8,52,0.00,,---,0.00,VWS V14.00,2013-05-26 23:55:00,
2013-05-26 18:58:00,81.8,62.5,29.18,SE,127,8.3,8.3,52,0.00,,---,0.00,VWS V14.00,2013-05-26 23:58:00,
2013-05-26 19:01:00,81.8,62.5,29.18,South,180,7.6,8.3,52,0.00,,---,0.00,VWS V14.00,2013-05-27 00:01:00,
2013-05-26 19:04:00,81.8,62.5,29.18,SSE,166,6.3,8.3,52,0.00,,---,0.00,VWS V14.00,2013-05-27 00:04:00,
2013-05-26 19:06:00,81.8,62.5,29.18,SSE,166,6.3,8.3,52,0.00,,---,0.00,VWS V14.00,2013-05-27 00:06:00,
2013-05-26 19:07:00,81.8,62.5,29.18,SSE,168,6.3,6.3,52,0.00,,---,0.00,VWS V14.00,2013-05-27 00:07:00,
2013-05-26 19:13:00,79.5,62.5,29.18,SSE,150,8.7,8.7,56,0.00,,---,0.00,VWS V14.00,2013-05-27 00:13:00,
2013-05-26 19:16:00,79.5,62.5,29.18,SSE,149,10.5,10.5,56,0.00,,---,0.00,VWS V14.00,2013-05-27 00:16:00,
2013-05-26 19:19:00,79.0,61.9,29.18,South,182,7.6,10.5,56,0.00,,---,0.00,VWS V14.00,2013-05-27 00:19:00,
2013-05-26 19:22:00,79.0,61.9,29.18,SE,133,5.8,6.3,56,0.00,,---,0.00,VWS V14.00,2013-05-27 00:22:00,
2013-05-26 19:25:00,79.0,61.9,29.18,SE,133,5.8,6.3,56,0.00,,---,0.00,VWS V14.00,2013-05-27 00:25:00,
2013-05-26 19:28:00,79.0,61.9,29.18,SE,133,5.8,6.3,56,0.00,,---,0.00,VWS V14.00,2013-05-27 00:28:00,
2013-05-26 19:31:00,79.0,61.9,29.18,SE,144,6.3,6.3,56,0.00,,---,0.00,VWS V14.00,2013-05-27 00:31:00,
2013-05-26 19:34:00,79.0,61.9,29.18,South,169,5.8,6.3,56,0.00,,---,0.00,VWS V14.00,2013-05-27 00:34:00,
2013-05-26 19:37:00,79.0,61.9,29.18,South,169,5.8,5.8,56,0.00,,---,0.00,VWS V14.00,2013-05-27 00:37:00,
2013-05-26 19:40:00,79.0,61.9,29.18,South,176,6.3,6.3,56,0.00,,---,0.00,VWS V14.00,2013-05-27 00:40:00,
2013-05-26 19:43:00,79.0,61.9,29.18,South,176,6.3,6.3,56,0.00,,---,0.00,VWS V14.00,2013-05-27 00:43:00,
2013-05-26 19:46:00,79.0,61.9,29.18,SSE,157,5.4,6.3,56,0.00,,---,0.00,VWS V14.00,2013-05-27 00:46:00,
2013-05-26 19:52:00,77.3,63.3,29.18,SSE,157,5.4,5.4,62,0.00,,---,0.00,VWS V14.00,2013-05-27 00:52:00,
2013-05-26 19:55:00,77.3,63.3,29.18,South,173,4.9,5.4,62,0.00,,---,0.00,VWS V14.00,2013-05-27 00:55:00,
2013-05-26 19:58:00,77.3,63.3,29.18,South,173,4.9,5.4,62,0.00,,---,0.00,VWS V14.00,2013-05-27 00:58:00,
2013-05-26 20:01:00,77.3,63.3,29.18,South,173,4.9,5.4,62,0.00,,---,0.00,VWS V14.00,2013-05-27 01:01:00,
2013-05-26 20:06:00,77.3,63.3,29.18,South,170,5.4,5.4,62,0.00,,---,0.00,VWS V14.00,2013-05-27 01:06:00,
2013-05-26 20:07:00,77.3,63.3,29.18,SSE,160,3.6,5.4,62,0.00,,---,0.00,VWS V14.00,2013-05-27 01:07:00,
2013-05-26 20:10:00,77.3,63.3,29.18,South,171,5.8,5.8,62,0.00,,---,0.00,VWS V14.00,2013-05-27 01:10:00,
2013-05-26 20:13:00,77.3,63.3,29.18,SSE,164,5.4,5.8,62,0.00,,---,0.00,VWS V14.00,2013-05-27 01:13:00,
2013-05-26 20:16:00,77.3,63.3,29.18,South,173,4.0,5.8,62,0.00,,---,0.00,VWS V14.00,2013-05-27 01:16:00,
2013-05-26 20:19:00,77.3,63.3,29.18,South,186,4.9,5.8,62,0.00,,---,0.00,VWS V14.00,2013-05-27 01:19:00,
2013-05-26 20:21:00,77.3,63.3,29.18,SSE,157,4.9,5.8,62,0.00,,---,0.00,VWS V14.00,2013-05-27 01:21:00,
2013-05-26 20:22:00,77.3,63.3,29.18,SSE,157,4.9,4.9,62,0.00,,---,0.00,VWS V14.00,2013-05-27 01:22:00,
2013-05-26 20:25:00,77.3,63.3,29.18,SSE,157,4.9,4.9,62,0.00,,---,0.00,VWS V14.00,2013-05-27 01:25:00,
2013-05-26 20:28:00,77.3,63.3,29.18,SSE,167,4.9,4.9,62,0.00,,---,0.00,VWS V14.00,2013-05-27 01:28:00,
2013-05-26 20:31:00,77.3,63.3,29.18,SSE,167,4.9,4.9,62,0.00,,---,0.00,VWS V14.00,2013-05-27 01:31:00,
2013-05-26 20:34:00,77.3,63.3,29.18,SSE,167,4.9,4.9,62,0.00,,---,0.00,VWS V14.00,2013-05-27 01:34:00,
2013-05-26 20:40:00,75.2,64.3,29.18,South,177,3.1,4.0,69,0.00,,---,0.00,VWS V14.00,2013-05-27 01:40:00,
2013-05-26 20:43:00,75.2,64.3,29.18,SSE,162,3.1,4.0,69,0.00,,---,0.00,VWS V14.00,2013-05-27 01:43:00,
2013-05-26 20:49:00,75.2,64.3,29.18,SSE,160,3.6,4.0,69,0.00,,---,0.00,VWS V14.00,2013-05-27 01:49:00,
2013-05-26 20:51:00,75.2,64.3,29.18,SSE,160,3.6,4.0,69,0.00,,---,0.00,VWS V14.00,2013-05-27 01:51:00,
2013-05-26 20:52:00,75.2,64.3,29.18,South,176,3.6,3.6,69,0.00,,---,0.00,VWS V14.00,2013-05-27 01:52:00,
2013-05-26 20:55:00,74.6,64.6,29.18,SSE,160,3.6,4.0,71,0.00,,---,0.00,VWS V14.00,2013-05-27 01:55:00,
2013-05-26 21:01:00,74.6,64.6,29.18,SSE,168,3.1,4.0,71,0.00,,---,0.00,VWS V14.00,2013-05-27 02:01:00,
2013-05-26 21:06:00,74.6,64.6,29.18,South,169,3.6,4.0,71,0.00,,---,0.00,VWS V14.00,2013-05-27 02:06:00,
2013-05-26 21:07:00,74.3,64.7,29.18,South,169,3.6,3.6,72,0.00,,---,0.00,VWS V14.00,2013-05-27 02:07:00,
2013-05-26 21:10:00,74.3,64.7,29.18,South,169,3.1,3.6,72,0.00,,---,0.00,VWS V14.00,2013-05-27 02:10:00,
2013-05-26 21:13:00,74.3,64.7,29.18,SSE,164,3.6,3.6,72,0.00,,---,0.00,VWS V14.00,2013-05-27 02:13:00,
2013-05-26 21:16:00,74.3,64.7,29.18,South,184,3.6,3.6,72,0.00,,---,0.00,VWS V14.00,2013-05-27 02:16:00,
2013-05-26 21:19:00,74.1,64.9,29.18,South,170,3.6,4.0,73,0.00,,---,0.00,VWS V14.00,2013-05-27 02:19:00,
2013-05-26 21:22:00,74.1,64.9,29.18,South,170,3.6,3.6,73,0.00,,---,0.00,VWS V14.00,2013-05-27 02:22:00,
2013-05-26 21:25:00,74.1,64.9,29.18,SSE,168,4.0,4.9,73,0.00,,---,0.00,VWS V14.00,2013-05-27 02:25:00,
2013-05-26 21:31:00,73.7,64.9,29.18,SSE,158,5.4,5.4,74,0.00,,---,0.00,VWS V14.00,2013-05-27 02:31:00,
2013-05-26 21:34:00,73.7,64.9,29.18,SSE,158,5.4,5.4,74,0.00,,---,0.00,VWS V14.00,2013-05-27 02:34:00,
2013-05-26 21:37:00,73.7,64.9,29.18,SE,125,4.9,5.4,74,0.00,,---,0.00,VWS V14.00,2013-05-27 02:37:00,
2013-05-26 21:40:00,73.7,64.9,29.18,SSE,168,3.6,5.4,74,0.00,,---,0.00,VWS V14.00,2013-05-27 02:40:00,
2013-05-26 21:43:00,73.7,64.9,29.18,SSE,167,6.3,6.3,74,0.00,,---,0.00,VWS V14.00,2013-05-27 02:43:00,
2013-05-26 21:46:00,73.7,64.9,29.18,SSE,167,6.3,6.3,74,0.00,,---,0.00,VWS V14.00,2013-05-27 02:46:00,
2013-05-26 21:49:00,73.7,64.9,29.18,South,169,5.4,6.3,74,0.00,,---,0.00,VWS V14.00,2013-05-27 02:49:00,
2013-05-26 21:51:00,73.7,64.9,29.18,South,171,5.8,6.3,74,0.00,,---,0.00,VWS V14.00,2013-05-27 02:51:00,
2013-05-26 21:52:00,73.7,64.9,29.18,SSE,152,3.6,5.8,74,0.00,,---,0.00,VWS V14.00,2013-05-27 02:52:00,
2013-05-26 21:55:00,73.7,64.9,29.21,SSE,152,3.6,5.8,74,0.00,,---,0.00,VWS V14.00,2013-05-27 02:55:00,
2013-05-26 21:58:00,73.7,64.9,29.21,South,183,6.3,6.3,74,0.00,,---,0.00,VWS V14.00,2013-05-27 02:58:00,
2013-05-26 22:01:00,73.7,63.8,29.21,SE,135,4.0,6.3,71,0.00,,---,0.00,VWS V14.00,2013-05-27 03:01:00,
2013-05-26 22:06:00,73.7,63.8,29.21,South,185,2.7,6.3,71,0.00,,---,0.00,VWS V14.00,2013-05-27 03:06:00,
2013-05-26 22:10:00,73.6,63.2,29.21,South,185,2.7,2.7,70,0.00,,---,0.00,VWS V14.00,2013-05-27 03:10:00,
2013-05-26 22:13:00,73.6,63.2,29.21,South,186,4.9,4.9,70,0.00,,---,0.00,VWS V14.00,2013-05-27 03:13:00,
2013-05-26 22:16:00,73.6,63.2,29.21,South,186,4.9,4.9,70,0.00,,---,0.00,VWS V14.00,2013-05-27 03:16:00,
2013-05-26 22:19:00,73.6,63.2,29.21,South,186,4.9,4.9,70,0.00,,---,0.00,VWS V14.00,2013-05-27 03:19:00,
2013-05-26 22:21:00,73.6,63.2,29.21,South,174,5.4,5.4,70,0.00,,---,0.00,VWS V14.00,2013-05-27 03:21:00,
2013-05-26 22:22:00,73.6,63.2,29.21,South,174,5.4,5.4,70,0.00,,---,0.00,VWS V14.00,2013-05-27 03:22:00,
2013-05-26 22:25:00,73.2,62.4,29.21,SE,131,3.6,5.4,69,0.00,,---,0.00,VWS V14.00,2013-05-27 03:25:00,
2013-05-26 22:28:00,73.2,62.4,29.21,SE,131,3.6,5.4,69,0.00,,---,0.00,VWS V14.00,2013-05-27 03:28:00,
2013-05-26 22:31:00,73.2,62.4,29.21,SSE,160,5.4,5.4,69,0.00,,---,0.00,VWS V14.00,2013-05-27 03:31:00,
2013-05-26 22:34:00,72.8,62.5,29.21,SSE,168,5.4,5.8,70,0.00,,---,0.00,VWS V14.00,2013-05-27 03:34:00,
2013-05-26 22:36:00,72.8,62.5,29.21,SSE,162,5.4,5.8,70,0.00,,---,0.00,VWS V14.00,2013-05-27 03:36:00,
2013-05-26 22:37:00,72.8,62.5,29.18,SSE,162,5.4,5.4,70,0.00,,---,0.00,VWS V14.00,2013-05-27 03:37:00,
2013-05-26 22:40:00,72.7,62.3,29.18,SE,142,4.9,5.4,70,0.00,,---,0.00,VWS V14.00,2013-05-27 03:40:00,
2013-05-26 22:43:00,72.7,62.3,29.18,SE,142,4.9,5.4,70,0.00,,---,0.00,VWS V14.00,2013-05-27 03:43:00,
2013-05-26 22:49:00,72.3,62.0,29.18,SSE,166,4.9,5.4,70,0.00,,---,0.00,VWS V14.00,2013-05-27 03:49:00,
2013-05-26 22:52:00,72.3,62.0,29.18,SSE,166,4.9,4.9,70,0.00,,---,0.00,VWS V14.00,2013-05-27 03:52:00,
2013-05-26 22:55:00,72.3,62.0,29.18,South,179,5.4,5.4,70,0.00,,---,0.00,VWS V14.00,2013-05-27 03:55:00,
2013-05-26 22:59:00,72.3,62.0,29.18,South,179,5.4,5.4,70,0.00,,---,0.00,VWS V14.00,2013-05-27 03:59:00,
2013-05-26 23:02:00,71.9,62.0,29.18,SSE,165,4.9,5.4,71,0.00,,---,0.00,VWS V14.00,2013-05-27 04:02:00,
2013-05-26 23:05:00,71.9,62.0,29.18,SSE,168,4.0,5.4,71,0.00,,---,0.00,VWS V14.00,2013-05-27 04:05:00,
2013-05-26 23:08:00,71.9,62.0,29.18,SSE,168,4.0,4.0,71,0.00,,---,0.00,VWS V14.00,2013-05-27 04:08:00,
2013-05-26 23:11:00,71.9,62.0,29.18,South,181,6.3,6.3,71,0.00,,---,0.00,VWS V14.00,2013-05-27 04:11:00,
2013-05-26 23:14:00,71.6,61.7,29.18,South,176,6.3,6.3,71,0.00,,---,0.00,VWS V14.00,2013-05-27 04:14:00,
2013-05-26 23:17:00,71.6,61.7,29.18,South,175,3.6,6.3,71,0.00,,---,0.00,VWS V14.00,2013-05-27 04:17:00,
2013-05-26 23:20:00,71.6,61.7,29.18,SSE,163,4.0,6.3,71,0.00,,---,0.00,VWS V14.00,2013-05-27 04:20:00,
2013-05-26 23:21:00,71.6,61.7,29.18,SSE,160,3.6,6.3,71,0.00,,---,0.00,VWS V14.00,2013-05-27 04:21:00,
2013-05-26 23:23:00,71.6,61.7,29.18,SSE,165,4.9,4.9,71,0.00,,---,0.00,VWS V14.00,2013-05-27 04:23:00,
2013-05-26 23:29:00,71.4,61.9,29.18,South,182,4.9,4.9,72,0.00,,---,0.00,VWS V14.00,2013-05-27 04:29:00,
2013-05-26 23:32:00,71.4,61.9,29.18,South,177,5.4,5.4,72,0.00,,---,0.00,VWS V14.00,2013-05-27 04:32:00,
2013-05-26 23:35:00,71.0,62.3,29.18,South,177,5.4,5.4,74,0.00,,---,0.00,VWS V14.00,2013-05-27 04:35:00,
2013-05-26 23:38:00,71.0,62.3,29.18,South,172,4.0,4.0,74,0.00,,---,0.00,VWS V14.00,2013-05-27 04:38:00,
2013-05-26 23:44:00,70.9,61.8,29.18,South,172,4.0,4.0,73,0.00,,---,0.00,VWS V14.00,2013-05-27 04:44:00,
2013-05-26 23:47:00,70.9,61.8,29.18,SSE,163,4.0,5.4,73,0.00,,---,0.00,VWS V14.00,2013-05-27 04:47:00,
2013-05-26 23:53:00,70.7,61.6,29.18,South,171,5.4,5.4,73,0.00,,---,0.00,VWS V14.00,2013-05-27 04:53:00,
2013-05-26 23:56:00,70.7,61.6,29.18,South,169,5.4,5.4,73,0.00,,---,0.00,VWS V14.00,2013-05-27 04:56:00,
2013-05-26 23:59:00,70.7,61.6,29.18,SSE,166,4.0,5.4,73,0.00,,---,0.00,VWS V14.00,2013-05-27 04:59:00,